Content
SEND FEEDBACK

Daily
Averages
Monthly
Summary
United States of America

AGAT, GUAM


Home > North America > United States > Guam
Elevation: 364 feet     Latitude: 13 33N     Longitude: 144 50E

WEATHER
 
SELECT A DAY
Number of Records: 208,807;   Date Range: 1/1/95 - 7/7/14
 
SHARE

PRINT THIS DATA

[ ← Previous Day ]
WEATHER ALMANAC - APRIL 9, 2013
[ Next Day → ]
[ °C ]   °F
We're sorry. There is no daily almanac available for Agat, Guam on April 9, 2013.
WEATHER BY HOUR - APRIL 9, 2013
[ °C ]   °F
Local TimeTemperatureDewpointHumidityBarometerVisibilityWind DirectionWind SpeedGust SpeedPrecipitationEventsConditions
1:54 AM81.0 °F71.1 °F72 %29.87 in10.0 miENE (60°)10.4 mphPartly Cloudy
2:54 AM81.0 °F71.1 °F72 %29.86 in10.0 miEast (80°)6.9 mphClear
3:54 AM80.1 °F72.0 °F76 %29.85 in10.0 miENE (60°)5.8 mphPartly Cloudy
4:54 AM80.1 °F72.0 °F76 %29.85 in10.0 miEast (90°)6.9 mph0.00 inPartly Cloudy
5:54 AM80.1 °F71.1 °F74 %29.86 in10.0 miEast (90°)6.9 mphClear
6:54 AM81.0 °F71.1 °F72 %29.88 in10.0 miEast (90°)5.8 mphPartly Cloudy
7:54 AM84.0 °F73.0 °F69 %29.90 in10.0 miENE (70°)13.8 mphMostly Cloudy
8:54 AM86.0 °F70.0 °F59 %29.91 in10.0 miENE (60°)17.3 mph23.0 mphPartly Cloudy
9:54 AM88.0 °F69.1 °F53 %29.91 in10.0 miEast (80°)17.3 mphPartly Cloudy
10:54 AM89.1 °F70.0 °F53 %29.90 in10.0 miENE (60°)17.3 mphPartly Cloudy
11:54 AM89.1 °F66.9 °F48 %29.87 in10.0 miENE (70°)15.0 mph21.9 mphPartly Cloudy
12:54 PM90.0 °F70.0 °F52 %29.85 in10.0 miENE (60°)16.1 mphClear
1:54 PM89.1 °F70.0 °F53 %29.82 in10.0 miENE (60°)18.4 mph23.0 mphScattered Clouds
2:54 PM90.0 °F66.9 °F46 %29.80 in10.0 miENE (60°)17.3 mphPartly Cloudy
3:54 PM88.0 °F70.0 °F55 %29.80 in10.0 miEast (90°)16.1 mphPartly Cloudy
4:54 PM87.1 °F71.1 °F59 %29.80 in10.0 miEast (80°)12.7 mphClear
5:54 PM84.9 °F73.0 °F67 %29.82 in10.0 miEast (80°)12.7 mph20.7 mphPartly Cloudy
6:54 PM84.0 °F73.0 °F69 %29.84 in10.0 miEast (80°)12.7 mphMostly Cloudy
7:54 PM84.0 °F73.9 °F72 %29.86 in10.0 miENE (60°)8.1 mphMostly Cloudy
8:54 PM82.9 °F73.9 °F74 %29.88 in10.0 miENE (60°)10.4 mphPartly Cloudy
9:47 PM82.4 °F75.2 °F79 %29.91 in10.0 miENE (60°)10.4 mph0.00 inMostly Cloudy
9:54 PM82.9 °F75.0 °F77 %29.88 in10.0 miENE (70°)10.4 mph0.00 inMostly Cloudy
10:03 PM82.4 °F73.4 °F74 %29.91 in10.0 miENE (70°)12.7 mphScattered Clouds
10:54 PM82.9 °F73.9 °F74 %29.89 in10.0 miENE (60°)9.2 mphClear
11:54 PM82.9 °F73.0 °F72 %29.88 in10.0 miENE (70°)11.5 mphOvercast
Hourly data recorded from PGUM, located miles away from Agat, Guam







STORIES FROM OUR PARTNERS